JR5IZI-13 Weather Reports


time (UTC)temp
C
wind
direction
speed
KPH
gust
KPH
rain 1hr
cm
rain 24hr
cm
rain mn
cm
humidity
%
barometer
mb
20260505062553 16 0.0 0.0 0.00 0.00 0.00 48 1013.3
20260505061342 16 0.0 0.0 0.00 0.00 0.00 47 1013.5
20260505055910 16 0.0 0.0 0.00 0.00 0.00 47 1013.6
20260505054428 16 0.0 0.0 0.00 0.00 0.00 46 1013.8
20260505053232 16 0.0 0.0 0.00 0.00 0.00 46 1013.8
20260505051733 16 0.0 0.0 0.00 0.00 0.00 44 1014.1
20260505050512 15 0.0 0.0 0.00 0.00 0.00 45 1014.3
20260505040908 15 0.0 0.0 0.00 0.00 0.00 48 1014.5
20260505035415 15 0.0 0.0 0.00 0.00 0.00 48 1014.5
20260505034058 15 0.0 0.0 0.00 0.00 0.00 52 1014.7
20260505032731 15 0.0 0.0 0.00 0.00 0.00 53 1014.9
20260505031333 15 0.0 0.0 0.00 0.00 0.00 56 1015.1
20260505030108 15 0.0 0.0 0.00 0.00 0.00 56 1015.1
20260505024807 15 0.0 0.0 0.00 0.00 0.00 56 1015.2
20260505023511 15 0.0 0.0 0.00 0.00 0.00 56 1015.5
20260505022223 15 0.0 0.0 0.00 0.00 0.00 56 1015.7
20260505020808 15 0.0 0.0 0.00 0.00 0.00 56 1015.8
20260505015335 15 0.0 0.0 0.00 0.00 0.00 55 1015.8
20260505013937 15 0.0 0.0 0.00 0.00 0.00 56 1016.0
20260505012606 15 0.0 0.0 0.00 0.00 0.00 55 1015.9
20260505011318 15 0.0 0.0 0.00 0.00 0.00 56 1016.0
20260505005922 15 0.0 0.0 0.00 0.00 0.00 55 1016.1
20260505004426 15 0.0 0.0 0.00 0.00 0.00 56 1016.2
20260505003217 15 0.0 0.0 0.00 0.00 0.00 56 1016.2
20260505001736 15 0.0 0.0 0.00 0.00 0.00 57 1016.1
20260505000537 15 0.0 0.0 0.00 0.00 0.00 57 1016.2
20260504235153 15 0.0 0.0 0.00 0.00 0.00 56 1016.2
20260504233923 15 0.0 0.0 0.00 0.00 0.00 57 1016.2
20260504232603 15 0.0 0.0 0.00 0.00 0.00 57 1016.2
20260504231340 13 0.0 0.0 0.00 0.00 0.00 57 1016.2
20260504224901 13 0.0 0.0 0.00 0.00 0.00 57 1016.2
20260504223409 13 0.0 0.0 0.00 0.00 0.00 57 1016.1
20260504222211 13 0.0 0.0 0.00 0.00 0.00 58 1016.1
20260504220958 13 0.0 0.0 0.00 0.00 0.00 57 1015.9
20260504215652 13 0.0 0.0 0.00 0.00 0.00 57 1016.0
20260504214411 13 0.0 0.0 0.00 0.00 0.00 58 1015.8
20260504212941 13 0.0 0.0 0.00 0.00 0.00 56 1015.6
20260504211715 13 0.0 0.0 0.00 0.00 0.00 56 1015.6
20260504210439 13 0.0 0.0 0.00 0.00 0.00 56 1015.4
20260504205030 13 0.0 0.0 0.00 0.00 0.00 56 1015.2
20260504203804 13 0.0 0.0 0.00 0.00 0.00 57 1015.0
20260504202528 13 0.0 0.0 0.00 0.00 0.00 57 1014.8
20260504201327 15 0.0 0.0 0.00 0.00 0.00 57 1014.7
20260504195908 15 0.0 0.0 0.00 0.00 0.00 56 1014.4
20260504194625 15 0.0 0.0 0.00 0.00 0.00 56 1014.4
20260504193318 15 0.0 0.0 0.00 0.00 0.00 56 1014.2
20260504191839 15 0.0 0.0 0.00 0.00 0.00 56 1014.0
20260504190631 15 0.0 0.0 0.00 0.00 0.00 55 1014.0
20260504185426 15 0.0 0.0 0.00 0.00 0.00 55 1013.9
20260504183934 15 0.0 0.0 0.00 0.00 0.00 55 1013.7
20260504182644 15 0.0 0.0 0.00 0.00 0.00 55 1013.7
20260504181158 15 0.0 0.0 0.00 0.00 0.00 55 1013.6
20260504175941 15 0.0 0.0 0.00 0.00 0.00 55 1013.5
20260504174740 15 0.0 0.0 0.00 0.00 0.00 55 1013.5
20260504173417 15 0.0 0.0 0.00 0.00 0.00 55 1013.3
20260504172214 15 0.0 0.0 0.00 0.00 0.00 55 1013.3
20260504171008 15 0.0 0.0 0.00 0.00 0.00 55 1013.2
20260504160117 15 0.0 0.0 0.00 0.00 0.00 54 1013.0
20260504150928 15 0.0 0.0 0.00 0.00 0.00 54 1013.1
20260504140123 16 0.0 0.0 0.00 0.00 0.00 53 1013.1
20260504120245 16 0.0 0.0 0.00 0.00 0.00 51 1011.7
20260504110720 16 0.0 0.0 0.00 0.00 0.00 50 1010.8
20260504081723 17 0.0 0.0 0.00 0.00 0.00 51 1007.0
20260504080256 17 0.0 0.0 0.00 0.00 0.00 51 1006.8